RLTS YMES-YMES

Flight info

Callsign RLTS
Flight time 0h 57m
Altitude 6000
Route ESL DCT WSL DCT ESL
Aircraft PC21/L-SDFGRWY/S

Departure

Time 2026-04-26 10:48
Airport RAAF Base East Sale (YMES)

Arrival

Time 2026-04-26 11:45
Airport RAAF Base East Sale (YMES)
Time Latitude Longitude Altitude Speed Heading
2026-04-26 10:38 -38.09901 147.13594 24 ft 0 kts 189°
2026-04-26 10:42 -38.09902 147.13594 26 ft 2 kts 189°
2026-04-26 10:42 -38.09916 147.13570 26 ft 3 kts 329°
2026-04-26 10:42 -38.09880 147.13575 27 ft 7 kts
2026-04-26 10:43 -38.09865 147.13534 27 ft 8 kts 277°
2026-04-26 10:43 -38.09843 147.13468 27 ft 8 kts 348°
2026-04-26 10:43 -38.09782 147.13451 27 ft 11 kts 313°
2026-04-26 10:43 -38.09762 147.13357 23 ft 12 kts 279°
2026-04-26 10:44 -38.09749 147.13251 24 ft 12 kts 279°
2026-04-26 10:44 -38.09735 147.13137 23 ft 14 kts 279°
2026-04-26 10:44 -38.09720 147.13010 20 ft 15 kts 279°
2026-04-26 10:44 -38.09705 147.12888 21 ft 12 kts 279°
2026-04-26 10:45 -38.09669 147.12829 22 ft 6 kts 346°
2026-04-26 10:45 -38.09659 147.12828 22 ft 0 kts
2026-04-26 10:46 -38.09656 147.12828 22 ft 3 kts
2026-04-26 10:46 -38.09592 147.12846 23 ft 12 kts 28°
2026-04-26 10:46 -38.09580 147.12929 23 ft 10 kts 97°
2026-04-26 10:46 -38.09588 147.13000 22 ft 4 kts 99°
2026-04-26 10:47 -38.09589 147.13003 22 ft 0 kts 98°
2026-04-26 10:47 -38.09627 147.13310 26 ft 77 kts 98°
2026-04-26 10:47 -38.09747 147.14268 71 ft 135 kts 98°
2026-04-26 10:48 -38.09928 147.15613 364 ft 176 kts 99°
2026-04-26 10:48 -38.10146 147.17215 906 ft 188 kts 98°
2026-04-26 10:48 -38.10740 147.18738 1497 ft 205 kts 136°
2026-04-26 10:48 -38.12124 147.19244 1968 ft 224 kts 192°
2026-04-26 10:49 -38.13307 147.17986 2316 ft 236 kts 250°
2026-04-26 10:49 -38.13476 147.15887 2533 ft 250 kts 272°
2026-04-26 10:49 -38.13423 147.13624 2682 ft 261 kts 274°
2026-04-26 10:49 -38.13322 147.11270 2819 ft 271 kts 275°
2026-04-26 10:50 -38.13158 147.08852 2890 ft 279 kts 279°
2026-04-26 10:50 -38.12869 147.07251 2965 ft 283 kts 288°
2026-04-26 10:50 -38.11968 147.04065 2927 ft 288 kts 292°
2026-04-26 10:50 -38.11227 147.01698 2908 ft 288 kts 292°
2026-04-26 10:51 -38.10487 146.99350 2841 ft 288 kts 292°
2026-04-26 10:51 -38.09925 146.94456 2677 ft 296 kts 246°
2026-04-26 10:51 -38.11396 146.92642 2381 ft 307 kts 202°
2026-04-26 10:52 -38.12792 146.92512 2032 ft 312 kts 162°
2026-04-26 10:52 -38.14068 146.94613 1098 ft 325 kts 90°
2026-04-26 10:52 -38.13191 146.97095 1347 ft 289 kts 57°
2026-04-26 10:52 -38.13878 146.99614 2109 ft 287 kts 171°
2026-04-26 10:53 -38.15327 146.98160 1438 ft 302 kts 268°
2026-04-26 10:53 -38.14739 146.96612 1286 ft 297 kts 326°
2026-04-26 10:53 -38.13122 146.95475 2412 ft 251 kts 302°
2026-04-26 10:54 -38.15030 146.95111 1198 ft 303 kts 81°
2026-04-26 10:54 -38.13699 146.97118 707 ft 308 kts 38°
2026-04-26 10:54 -38.12518 146.98298 3235 ft 30 kts 216°
2026-04-26 10:54 -38.12998 146.97953 2177 ft 108 kts 41°
2026-04-26 10:55 -38.11857 146.99841 727 ft 300 kts 88°
2026-04-26 10:55 -38.13213 147.01254 1138 ft 284 kts 194°
2026-04-26 10:55 -38.14045 146.99360 1240 ft 279 kts 291°
2026-04-26 10:55 -38.12822 146.97372 767 ft 295 kts 313°
2026-04-26 10:56 -38.12024 146.96294 3618 ft 81 kts 124°
2026-04-26 10:56 -38.12208 146.96712 1355 ft 204 kts 316°
2026-04-26 10:56 -38.10943 146.94733 955 ft 281 kts 284°
2026-04-26 10:56 -38.12027 146.93183 1211 ft 284 kts 169°
2026-04-26 10:57 -38.12993 146.95142 788 ft 293 kts 88°
2026-04-26 10:57 -38.12894 146.97552 1751 ft 207 kts 87°
2026-04-26 10:57 -38.13405 146.99087 2213 ft 206 kts 95°
2026-04-26 10:57 -38.13209 147.01632 624 ft 307 kts 66°
2026-04-26 10:58 -38.11552 147.02076 1038 ft 285 kts 314°
2026-04-26 10:58 -38.11453 146.99621 692 ft 300 kts 254°
2026-04-26 10:58 -38.12048 146.97163 1083 ft 225 kts 255°
2026-04-26 10:58 -38.11968 146.97302 3857 ft 116 kts 63°
2026-04-26 10:59 -38.12279 146.96176 409 ft 314 kts 251°
2026-04-26 10:59 -38.12536 146.93751 1501 ft 258 kts 302°
2026-04-26 10:59 -38.11121 146.93841 1180 ft 273 kts 69°
2026-04-26 10:59 -38.11463 146.96357 518 ft 302 kts 106°
2026-04-26 11:00 -38.12061 146.98886 562 ft 294 kts 106°
2026-04-26 11:00 -38.13103 147.00800 1380 ft 269 kts 167°
2026-04-26 11:00 -38.14400 146.99470 1148 ft 283 kts 270°
2026-04-26 11:00 -38.13566 146.97162 778 ft 290 kts 303°
2026-04-26 11:01 -38.12534 146.95034 857 ft 279 kts 302°
2026-04-26 11:01 -38.11532 146.92947 1024 ft 270 kts 303°
2026-04-26 11:01 -38.10874 146.90773 1192 ft 279 kts 262°
2026-04-26 11:01 -38.12237 146.89206 1229 ft 289 kts 183°
2026-04-26 11:02 -38.13904 146.90364 1243 ft 285 kts 119°
2026-04-26 11:02 -38.14135 146.92817 1102 ft 286 kts 76°
2026-04-26 11:02 -38.13577 146.95253 1096 ft 286 kts 72°
2026-04-26 11:02 -38.12995 146.97656 1155 ft 283 kts 73°
2026-04-26 11:03 -38.13115 147.00034 1523 ft 280 kts 117°
2026-04-26 11:03 -38.14742 147.01311 1407 ft 296 kts 178°
2026-04-26 11:03 -38.16537 147.00191 1281 ft 298 kts 235°
2026-04-26 11:03 -38.16820 146.97732 1431 ft 286 kts 291°
2026-04-26 11:04 -38.15792 146.95590 1457 ft 285 kts 306°
2026-04-26 11:04 -38.14660 146.93512 1472 ft 285 kts 307°
2026-04-26 11:04 -38.13559 146.91431 1638 ft 281 kts 298°
2026-04-26 11:04 -38.13614 146.89034 1828 ft 292 kts 237°
2026-04-26 11:05 -38.15400 146.88074 1785 ft 296 kts 167°
2026-04-26 11:05 -38.16911 146.89660 1855 ft 287 kts 112°
2026-04-26 11:05 -38.17037 146.92111 1864 ft 280 kts 72°
2026-04-26 11:05 -38.15991 146.94090 2011 ft 275 kts 38°
2026-04-26 11:06 -38.14373 146.95408 2171 ft 277 kts 36°
2026-04-26 11:06 -38.13512 146.97512 2246 ft 284 kts 92°
2026-04-26 11:06 -38.14689 146.99403 2127 ft 298 kts 165°
2026-04-26 11:06 -38.16446 146.98386 2013 ft 299 kts 248°
2026-04-26 11:07 -38.15781 146.96209 1474 ft 297 kts 340°
2026-04-26 11:07 -38.13701 146.96226 806 ft 311 kts
2026-04-26 11:07 -38.11574 146.96568 641 ft 305 kts
2026-04-26 11:07 -38.09477 146.96917 517 ft 300 kts
2026-04-26 11:08 -38.07688 146.97241 2118 ft 80 kts 13°
2026-04-26 11:08 -38.08241 146.97213 3054 ft 43 kts 152°
2026-04-26 11:08 -38.06769 146.97803 595 ft 297 kts 42°
2026-04-26 11:08 -38.07082 146.99884 724 ft 288 kts 161°
2026-04-26 11:09 -38.08741 146.98895 640 ft 289 kts 240°
2026-04-26 11:09 -38.08875 146.96458 649 ft 284 kts 296°
2026-04-26 11:09 -38.07432 146.94895 978 ft 267 kts 332°
2026-04-26 11:09 -38.05824 146.94826 1815 ft 248 kts 46°
2026-04-26 11:10 -38.05964 146.96933 1184 ft 292 kts 137°
2026-04-26 11:10 -38.07986 146.97286 625 ft 311 kts 189°
2026-04-26 11:10 -38.10087 146.96816 779 ft 295 kts 191°
2026-04-26 11:10 -38.11712 146.95673 1546 ft 265 kts 239°
2026-04-26 11:11 -38.12342 146.93544 1865 ft 260 kts 254°
2026-04-26 11:11 -38.13175 146.91537 2101 ft 269 kts 216°
2026-04-26 11:11 -38.14981 146.91524 1813 ft 288 kts 139°
2026-04-26 11:11 -38.15463 146.93890 1217 ft 297 kts 70°
2026-04-26 11:12 -38.14065 146.95744 886 ft 300 kts 24°
2026-04-26 11:12 -38.12033 146.96302 658 ft 300 kts
2026-04-26 11:12 -38.09975 146.96659 559 ft 297 kts
2026-04-26 11:12 -38.08006 146.97026 1013 ft 225 kts 10°
2026-04-26 11:13 -38.08218 146.97085 3742 ft 128 kts 181°
2026-04-26 11:13 -38.07252 146.97266 424 ft 303 kts 355°
2026-04-26 11:13 -38.06288 146.95392 592 ft 291 kts 248°
2026-04-26 11:13 -38.07967 146.94656 614 ft 286 kts 149°
2026-04-26 11:14 -38.08803 146.96780 584 ft 282 kts 81°
2026-04-26 11:14 -38.07666 146.98650 886 ft 266 kts 36°
2026-04-26 11:14 -38.06957 147.00533 1526 ft 263 kts 107°
2026-04-26 11:14 -38.08541 147.01432 949 ft 297 kts 205°
2026-04-26 11:15 -38.09288 146.99166 561 ft 302 kts 279°
2026-04-26 11:15 -38.08927 146.96519 349 ft 302 kts 280°
2026-04-26 11:15 -38.08943 146.96239 3524 ft 142 kts 104°
2026-04-26 11:15 -38.08812 146.95299 471 ft 296 kts 285°
2026-04-26 11:16 -38.07285 146.94691 794 ft 274 kts 45°
2026-04-26 11:16 -38.06850 146.97008 970 ft 278 kts 85°
2026-04-26 11:16 -38.06719 146.99444 939 ft 281 kts 87°
2026-04-26 11:16 -38.07548 147.01499 1008 ft 287 kts 161°
2026-04-26 11:17 -38.09148 147.00431 784 ft 293 kts 252°
2026-04-26 11:17 -38.09059 146.97841 567 ft 293 kts 279°
2026-04-26 11:17 -38.08820 146.95321 589 ft 282 kts 277°
2026-04-26 11:17 -38.08583 146.92895 813 ft 272 kts 279°
2026-04-26 11:18 -38.08289 146.90601 1563 ft 249 kts 292°
2026-04-26 11:18 -38.06961 146.89721 1973 ft 248 kts 24°
2026-04-26 11:18 -38.06519 146.91799 969 ft 300 kts 115°
2026-04-26 11:18 -38.07632 146.94135 513 ft 309 kts 122°
2026-04-26 11:19 -38.08008 146.94750 4003 ft 120 kts 297°
2026-04-26 11:19 -38.08213 146.94960 585 ft 308 kts 125°
2026-04-26 11:19 -38.08654 146.97474 657 ft 295 kts 64°
2026-04-26 11:19 -38.07370 146.99312 1365 ft 265 kts 61°
2026-04-26 11:20 -38.08206 147.00979 1296 ft 287 kts 184°
2026-04-26 11:20 -38.09134 146.99899 775 ft 301 kts 259°
2026-04-26 11:20 -38.08897 146.96319 462 ft 302 kts 278°
2026-04-26 11:20 -38.08605 146.93745 782 ft 282 kts 280°
2026-04-26 11:21 -38.08072 146.91562 1827 ft 247 kts 319°
2026-04-26 11:21 -38.06598 146.91929 1444 ft 276 kts 67°
2026-04-26 11:21 -38.07043 146.94358 673 ft 308 kts 115°
2026-04-26 11:21 -38.07916 146.96344 2712 ft 185 kts 143°
2026-04-26 11:22 -38.09040 146.97602 1142 ft 291 kts 118°
2026-04-26 11:22 -38.09665 147.00167 903 ft 298 kts 72°
2026-04-26 11:22 -38.08133 147.01329 1463 ft 274 kts 355°
2026-04-26 11:22 -38.06272 147.00884 1867 ft 269 kts 348°
2026-04-26 11:23 -38.04857 146.99481 1584 ft 290 kts 286°
2026-04-26 11:23 -38.05761 146.97245 800 ft 318 kts 208°
2026-04-26 11:23 -38.07868 146.96444 846 ft 280 kts 194°
2026-04-26 11:23 -38.08005 146.96350 4246 ft 126 kts
2026-04-26 11:24 -38.08666 146.96077 485 ft 326 kts 195°
2026-04-26 11:24 -38.10694 146.95435 942 ft 290 kts 194°
2026-04-26 11:24 -38.12221 146.94199 1827 ft 254 kts 238°
2026-04-26 11:24 -38.13199 146.92352 2174 ft 255 kts 227°
2026-04-26 11:25 -38.14773 146.91378 2398 ft 259 kts 181°
2026-04-26 11:25 -38.16320 146.92394 2429 ft 271 kts 120°
2026-04-26 11:25 -38.16083 146.94708 1518 ft 298 kts 46°
2026-04-26 11:25 -38.14229 146.95871 969 ft 305 kts 11°
2026-04-26 11:26 -38.12126 146.96278 724 ft 304 kts
2026-04-26 11:26 -38.10052 146.96658 561 ft 301 kts
2026-04-26 11:26 -38.08035 146.97045 1075 ft 219 kts
2026-04-26 11:26 -38.08279 146.97043 3693 ft 122 kts 186°
2026-04-26 11:27 -38.07218 146.97399 470 ft 304 kts 24°
2026-04-26 11:27 -38.06834 146.99524 618 ft 292 kts 137°
2026-04-26 11:27 -38.08640 146.99252 503 ft 291 kts 230°
2026-04-26 11:27 -38.09039 146.96838 472 ft 288 kts 281°
2026-04-26 11:28 -38.09048 146.94392 757 ft 279 kts 243°
2026-04-26 11:28 -38.10566 146.92970 1032 ft 280 kts 195°
2026-04-26 11:28 -38.12454 146.92547 1393 ft 276 kts 182°
2026-04-26 11:28 -38.13864 146.93945 1347 ft 285 kts 99°
2026-04-26 11:29 -38.13008 146.96021 789 ft 297 kts 25°
2026-04-26 11:29 -38.10970 146.96520 539 ft 299 kts
2026-04-26 11:29 -38.08916 146.96889 450 ft 296 kts
2026-04-26 11:29 -38.07766 146.97113 3521 ft 56 kts 189°
2026-04-26 11:30 -38.08233 146.97096 1945 ft 136 kts 15°
2026-04-26 11:30 -38.07014 146.97584 531 ft 305 kts 31°
2026-04-26 11:30 -38.06576 147.00591 852 ft 290 kts 125°
2026-04-26 11:30 -38.08347 147.01379 868 ft 289 kts 201°
2026-04-26 11:31 -38.09233 146.99289 475 ft 297 kts 277°
2026-04-26 11:31 -38.08955 146.96712 468 ft 288 kts 277°
2026-04-26 11:31 -38.08708 146.94234 532 ft 276 kts 277°
2026-04-26 11:31 -38.08490 146.91845 867 ft 271 kts 271°
2026-04-26 11:32 -38.09408 146.89889 1170 ft 278 kts 206°
2026-04-26 11:32 -38.11321 146.89569 1387 ft 280 kts 183°
2026-04-26 11:32 -38.13224 146.89608 1703 ft 267 kts 152°
2026-04-26 11:32 -38.13249 146.91491 1634 ft 264 kts 26°
2026-04-26 11:33 -38.11502 146.90954 1117 ft 285 kts 319°
2026-04-26 11:33 -38.10218 146.89112 1409 ft 273 kts 301°
2026-04-26 11:33 -38.10022 146.86841 1554 ft 268 kts 254°
2026-04-26 11:33 -38.11175 146.84987 1780 ft 282 kts 207°
2026-04-26 11:34 -38.13013 146.84958 1817 ft 276 kts 155°
2026-04-26 11:34 -38.14155 146.86884 1779 ft 288 kts 100°
2026-04-26 11:34 -38.13843 146.89306 1841 ft 291 kts 56°
2026-04-26 11:34 -38.12156 146.90651 1683 ft 292 kts 12°
2026-04-26 11:35 -38.10199 146.91034 1663 ft 276 kts
2026-04-26 11:35 -38.08282 146.91389 1636 ft 279 kts
2026-04-26 11:35 -38.06300 146.91576 1548 ft 292 kts
2026-04-26 11:35 -38.04960 146.91735 1444 ft 292 kts
2026-04-26 11:36 -38.02215 146.92041 1384 ft 298 kts 357°
2026-04-26 11:36 -38.00611 146.93278 1784 ft 301 kts 70°
2026-04-26 11:36 -38.01104 146.95764 1432 ft 305 kts 132°
2026-04-26 11:36 -38.02851 146.97186 1150 ft 302 kts 161°
2026-04-26 11:37 -38.04961 146.97484 741 ft 312 kts 186°
2026-04-26 11:37 -38.07118 146.97181 444 ft 310 kts 187°
2026-04-26 11:37 -38.09008 146.97437 463 ft 276 kts 102°
2026-04-26 11:37 -38.09244 146.99587 1738 ft 105 kts 90°
2026-04-26 11:38 -38.09110 146.98996 2536 ft 97 kts 287°
2026-04-26 11:38 -38.08988 146.97123 328 ft 251 kts 275°
2026-04-26 11:38 -38.08212 146.95509 429 ft 239 kts 14°
2026-04-26 11:38 -38.07657 146.97405 305 ft 276 kts 109°
2026-04-26 11:39 -38.09024 146.97497 456 ft 269 kts 267°
2026-04-26 11:39 -38.10165 146.95971 983 ft 253 kts 207°
2026-04-26 11:39 -38.11721 146.95008 1329 ft 250 kts 208°
2026-04-26 11:39 -38.13028 146.93632 1662 ft 247 kts 251°
2026-04-26 11:40 -38.12582 146.91672 1658 ft 254 kts 326°
2026-04-26 11:40 -38.10904 146.91837 1604 ft 268 kts 40°
2026-04-26 11:40 -38.09973 146.93939 1507 ft 281 kts 67°
2026-04-26 11:40 -38.09234 146.96242 1567 ft 281 kts 60°
2026-04-26 11:41 -38.07912 146.98040 1432 ft 281 kts 34°
2026-04-26 11:42 -38.09267 147.10216 473 ft 302 kts 98°
2026-04-26 11:43 -38.09593 147.12852 198 ft 299 kts 99°
2026-04-26 11:43 -38.09610 147.14450 621 ft 237 kts 45°
2026-04-26 11:43 -38.08836 147.13778 948 ft 161 kts 280°
2026-04-26 11:43 -38.08678 147.12506 964 ft 138 kts 283°
2026-04-26 11:44 -38.08535 147.11307 947 ft 134 kts 275°
2026-04-26 11:44 -38.08999 147.10480 556 ft 122 kts 175°
2026-04-26 11:44 -38.09386 147.11316 252 ft 125 kts 96°
2026-04-26 11:44 -38.09517 147.12419 130 ft 126 kts 98°
2026-04-26 11:45 -38.09638 147.13398 26 ft 95 kts 98°
2026-04-26 11:45 -38.09727 147.14103 27 ft 71 kts 98°
2026-04-26 11:45 -38.09786 147.14600 20 ft 40 kts 99°
2026-04-26 11:45 -38.09823 147.14722 18 ft 10 kts 174°
2026-04-26 11:46 -38.09881 147.14670 18 ft 10 kts 233°
2026-04-26 11:46 -38.09914 147.14599 20 ft 8 kts 264°
2026-04-26 11:46 -38.09907 147.14514 22 ft 11 kts 276°
2026-04-26 11:46 -38.09895 147.14403 23 ft 15 kts 279°
2026-04-26 11:47 -38.09878 147.14268 23 ft 16 kts 279°
2026-04-26 11:47 -38.09861 147.14138 26 ft 14 kts 279°
2026-04-26 11:47 -38.09862 147.14046 29 ft 7 kts 210°
2026-04-26 11:47 -38.09915 147.14031 28 ft 9 kts 207°
2026-04-26 11:48 -38.09919 147.13972 28 ft 9 kts 279°
2026-04-26 11:48 -38.09909 147.13887 28 ft 10 kts 279°
2026-04-26 11:48 -38.09896 147.13787 26 ft 12 kts 279°
2026-04-26 11:48 -38.09883 147.13676 29 ft 13 kts 278°
2026-04-26 11:49 -38.09878 147.13600 26 ft 4 kts 226°
2026-04-26 11:49 -38.09900 147.13594 26 ft 1 kts 188°
2026-04-26 11:49 -38.09901 147.13594 26 ft 0 kts 188°